Dewpoint
59 58 58 58 58 59 60 60 59 59 59 59 59 60 59 61 53 55 57 58 63 64 64 63 62 61 61 61 61 61 61 61 61
58 58 58 57 57 58 58 58 58 58 59 59 59 60 60 51 53 57 60 63 66 66 65 64 63 62 61 63 62 62 62 63 62
58 58 57 57 57 57 58 58 58 59 59 60 60 60 60 54 58 61 63 65 63 64 64 65 65 64 65 65 65 65 64 64 64
56 56 57 56 56 55 56 56 58 60 60 60 61 61 62 58 60 59 60 64 62 62 61 64 65 64 65 64 64 63 63 63 63
57 57 57 56 55 55 54 55 56 59 60 60 60 60 62 56 56 59 60 62 60 61 60 61 63 63 62 62 61 62 62 61 61
51 56 56 56 55 55 54 53 53 58 60 59 58 59 52 54 53 55 61 59 59 59 58 58 60 61 61 60 60 60 60 60 60
47 51 52 52 53 53 53 52 50 49 48 52 55 49 49 50 52 55 60 57 58 57 57 57 57 59 59 59 58 57 56 56 57
41 43 42 43 48 42 44 45 45 44 47 50 50 49 48 49 51 55 58 57 56 56 55 55 55 57 57 57 55 54 55 55 55
40 41 42 42 42 42 44 46 48 46 48 49 49 48 48 48 48 51 56 54 54 55 55 55 55 54 54 54 54 54 54 54 54
40 40 41 42 42 40 44 46 47 47 48 50 49 48 47 47 48 47 55 54 53 55 55 55 55 55 54 54 54 53 52 53 54
42 41 41 42 41 40 43 47 49 48 47 50 50 50 49 47 47 45 46 53 52 53 53 53 54 54 54 54 53 52 50 51 52
41 39 40 41 42 40 43 47 49 50 49 51 51 49 48 47 46 45 40 44 52 51 52 51 51 51 52 51 51 50 50 50 50
40 39 39 41 42 40 39 43 47 48 49 49 49 49 48 47 45 45 41 41 40 45 51 51 50 49 50 51 51 50 49 49 49
39 37 38 41 41 40 38 39 40 44 48 48 49 49 49 47 45 46 43 42 38 39 47 45 45 47 47 49 51 51 50 50 50
39 38 37 38 40 40 40 39 39 40 43 43 47 49 49 49 49 48 41 37 39 41 40 39 39 44 47 48 48 49 49 49 49
40 37 36 37 37 38 37 38 38 38 41 42 44 48 50 49 48 49 41 36 36 37 39 39 39 38 41 44 45 46 49 49 48
38 38 36 36 36 36 36 37 36 37 39 37 38 36 43 40 43 46 40 38 37 35 36 37 37 39 39 40 40 47 49 49 50
39 38 37 37 36 37 37 38 36 36 38 38 35 34 33 36 40 43 40 38 37 35 36 35 34 34 33 35 37 46 45 45 46
41 40 37 37 37 37 37 36 37 37 36 37 36 37 36 33 31 36 40 38 32 34 35 31 30 31 31 37 40 38 41 44 46
40 39 39 37 37 37 36 37 36 37 34 36 35 34 36 35 32 30 32 32 33 33 31 27 24 23 28 29 29 34 36 38 40
Lifted_Index
6 6 7 7 7 6 6 6 6 6 6 7 7 7 7 7 6 6 4 3 2 2 2 3 3 4 4 3 3 3 3 3 4
6 7 7 7 7 7 6 6 6 6 6 7 7 7 7 7 6 4 3 3 2 2 2 2 2 3 3 3 3 3 3 3 3
7 7 7 7 7 7 7 7 6 6 6 6 6 6 6 5 4 3 3 2 3 3 2 2 2 2 2 2 2 2 2 2 3
7 7 7 7 8 8 7 7 6 6 5 6 6 6 5 4 3 3 3 3 4 4 3 3 2 2 2 2 2 3 3 3 3
8 8 7 8 8 8 8 8 8 6 6 6 6 6 5 4 4 4 4 4 5 5 4 4 3 3 3 3 4 4 4 4 4
9 9 9 9 9 9 9 10 9 8 7 7 7 7 6 6 5 5 5 5 5 5 5 5 4 4 4 4 5 5 5 5 5
11 11 11 11 11 10 10 11 11 10 9 8 7 7 7 7 6 6 6 6 6 6 6 6 5 5 5 5 6 6 6 6 6
12 12 12 12 12 12 11 11 11 10 9 8 8 8 8 8 7 7 7 7 7 7 7 7 6 6 6 6 7 7 7 7 7
13 13 13 13 13 12 11 10 10 10 9 8 8 8 8 8 8 9 9 8 8 8 7 7 7 7 7 7 8 8 8 8 8
13 13 13 13 13 12 11 10 9 9 9 8 8 8 8 9 9 10 10 9 9 8 8 8 8 8 8 8 8 9 9 9 8
13 13 13 13 13 13 12 10 9 9 8 8 8 8 9 9 10 10 11 10 10 9 9 9 9 8 8 8 9 9 10 9 9
13 13 13 13 13 13 12 10 9 8 8 8 8 8 9 9 10 11 12 12 11 10 10 10 10 10 9 9 9 10 10 10 10
13 13 13 13 13 13 13 11 10 9 8 8 8 8 9 9 10 11 12 12 12 12 12 11 11 11 10 10 10 10 10 10 10
13 13 13 13 13 13 13 13 12 10 9 8 8 8 8 9 9 10 12 13 13 13 13 13 13 13 12 11 10 10 10 10 10
13 13 13 13 13 13 13 13 13 12 11 10 9 8 8 9 9 10 11 13 13 13 13 14 14 13 13 12 12 11 11 10 10
13 13 13 13 13 13 13 13 13 13 12 11 10 9 9 9 9 10 11 12 13 13 13 14 14 14 14 13 13 13 12 11 10
13 13 13 13 13 13 13 13 13 13 12 12 11 10 10 10 10 11 11 12 12 12 13 14 14 14 14 15 14 13 12 12 11
14 13 13 13 13 13 13 13 13 13 12 12 12 11 11 11 11 11 11 12 12 12 13 14 14 15 15 16 16 15 14 13 13
14 14 14 13 13 13 13 13 13 13 12 12 12 12 11 11 11 11 11 12 12 13 14 14 16 17 17 17 18 18 17 16 15
14 14 14 14 13 13 13 13 13 13 12 12 12 11 11 11 10 10 11 11 12 13 14 15 17 18 18 19 19 20 19 18 17